User: anonymous   Login
Location: Kuppenheim
(48.8299°N, 8.2568°E)
Time: 07:44:03
(UTC+00:00)
Language:

Nadezhda 4 Rocket - Orbit

View from above orbital plane
View from above orbital plane
View from above satellite
View from above satellite

Ground track
Ground track

The orbit data is extracted from the following two-line orbital elements,

1 23180U 94041B   21267.88627669  .00000083  00000-0  66971-4 0  9996
2 23180  82.9486 209.6340 0029126 165.5823 248.5367 13.78016598367848
Epoch (UTC): 24 September 2021 21:16:14
Eccentricity: 0.0029126
inclination: 82.9486°
perigee height: 949 km
apogee height: 992 km
right ascension of ascending node: 209.6340°
argument of perigee: 165.5823°
revolutions per day: 13.78016598
mean anomaly at epoch: 248.5367°
orbit number at epoch: 36784

The dashed part of the orbit path shows where the satellite is in the earth's shadow,  

DLR